Regional Weather Roundup
Issued by NWS Upton, NY

Current Version | Previous Version | Text Only | Print | Product List | Glossary On
Versions: 1 2 3 4 5 6 7 8 9 10 11 12 13 14 15 16 17 18 19 20 21 22 23 24 25 26 27 28 29 30 31 32 33 34 35 36 37 38 39 40 41 42 43 44 45 46 47 48 49 50
000 ASUS41 KOKX 011905 RWROKX REGIONAL WEATHER ROUNDUP NATIONAL WEATHER SERVICE NEW YORK NY 200 PM EST SUN FEB 01 2015 NOTE: "FAIR" INDICATES FEW OR NO CLOUDS BELOW 12,000 FEET WITH NO SIGNIFICANT WEATHER AND/OR OBSTRUCTIONS TO VISIBILITY. NYZ071-072-176-178-NJZ106-104-012000- NEW YORK CITY METRO AREA CITY SKY/WX TMP DP RH WIND PRES REMARKS CENTRAL PARK CLOUDY 35 17 47 VRB5 30.16F WCI 31 LAGUARDIA APRT PTSUNNY 35 18 49 W9 30.14F WCI 28 KENNEDY INTL CLOUDY 35 19 52 W12 30.16F WCI 27 NEWARK/LIBERTY CLOUDY 35 20 54 W10 30.15F WCI 27 BRNX BOT. GARD N/A N/A N/A N/A SW9 30.15F TETERBORO PTSUNNY 35 17 47 SW7 30.13F WCI 29 $$ NYZ177-179-078>081-012000- LONG ISLAND NEW YORK CITY SKY/WX TMP DP RH WIND PRES REMARKS FARMINGDALE CLOUDY 35 18 49 W7 30.14F WCI 29 ISLIP PTSUNNY 36 19 50 W8 30.12F WCI 30 SHIRLEY SUNNY 34 19 54 W7 30.14F WCI 28 WESTHAMPTON MOSUNNY 33 18 53 NW8 30.15F WCI 26 MONTAUK POINT N/A 33 21 61 W9 30.14F WCI 25 $$ NYZ052-065-067-012000- HUDSON VALLEY CITY SKY/WX TMP DP RH WIND PRES REMARKS WHITE PLAINS PTSUNNY 34 19 54 W10 30.11F WCI 26 NEWBURGH PTSUNNY 32 21 64 W14 30.12F WCI 22 MONTGOMERY CLOUDY 34 18 52 NW9 30.10F WCI 27 POUGHKEEPSIE CLOUDY 35 17 47 CALM 30.11F ALBANY MOSUNNY 26 9 48 VRB3 30.15S $$ NJZ001-105-106-008-010-013-015-019>022-104-012000- NEW JERSEY CITY SKY/WX TMP DP RH WIND PRES REMARKS NEWARK/LIBERTY CLOUDY 35 20 54 W10 30.15F WCI 27 TETERBORO PTSUNNY 35 17 47 SW7 30.13F WCI 29 CALDWELL CLOUDY 35 18 49 W7 30.13F WCI 29 MORRISTOWN CLOUDY 34 19 55 W8 30.15F WCI 27 SOMERVILLE PTSUNNY 37 19 48 VRB5 30.14F WCI 33 SUSSEX CLOUDY 34 19 54 SW7 30.10F WCI 28 ANDOVER N/A 33 18 53 VRB3 30.11F TRENTON CLOUDY 36 19 50 W6 30.15F WCI 31 MILLVILLE CLOUDY 39 21 48 W9 30.17F WCI 33 ATLANTIC CITY CLOUDY 40 19 43 W6 30.17F WRIGHTSTOWN CLOUDY 37 19 49 W8 30.14F WCI 31 TOMS RIVER CLOUDY 37 19 48 W3 30.16F BELMAR CLOUDY 36 18 48 SW6 30.15F WCI 31 $$ PAZ047>061-062-071-012000- EASTERN PENNSYLVANIA CITY SKY/WX TMP DP RH WIND PRES REMARKS PHILADELPHIA CLOUDY 38 25 59 W7 30.18F WCI 33 ALLENTOWN CLOUDY 34 23 64 SW7 30.14F WCI 28 SCRANTON CLOUDY 30 20 66 SW6 30.09F WCI 24 $$ CTZ002-004>006-009-010-012-RIZ004-006-007-MAZ004-011-015-012000- SOUTHERN NEW ENGLAND IN CT CITY SKY/WX TMP DP RH WIND PRES REMARKS BRADLEY INTL MOSUNNY 33 10 38 NW14 30.10F WCI 23 HARTFORD SUNNY 33 12 41 NW8G18 30.12F WCI 26 DANBURY PTSUNNY 32 15 49 NW5 30.12F WCI 27 WTRBRY/OXFORD PTSUNNY 30 12 47 W7 30.10F WCI 23 BRIDGEPORT PTSUNNY 34 23 64 SW8 30.14F WCI 27 MERIDEN SUNNY 34 14 43 NW12 30.13F WCI 25 NEW HAVEN MOSUNNY 34 17 50 NW9G16 30.13F WCI 27 CHESTER FAIR 32 16 51 W8 30.11F WCI 25 GROTON SUNNY 32 16 51 NW9 30.11F WCI 24 WILLIMANTIC SUNNY 32 13 45 NW12 30.10F WCI 23 IN RI CITY SKY/WX TMP DP RH WIND PRES REMARKS PROVIDENCE MOSUNNY 32 13 45 W10 30.10F WCI 24 BLOCK ISLAND MOSUNNY 34 19 55 W13G20 30.10F WCI 25 WESTERLY SUNNY 34 13 41 NW10G20 30.12F WCI 26 IN MA CITY SKY/WX TMP DP RH WIND PRES REMARKS BOSTON MOSUNNY 29 9 43 W15 30.09F WCI 18 WORCESTER SUNNY 25 11 55 NW13 30.03F WCI 14 WESTFIELD SUNNY 32 6 33 NW17 30.10F WCI 21 PROVINCETOWN SUNNY 28 12 50 NW18G24 30.09S WCI 16 NANTUCKET MOSUNNY 32 18 56 W16 30.09S WCI 21 $$ ANZ330-335-338-340-345-350-353-355-012000- COASTAL MARINE OBSERVATIONS STATION/POSITION TIME SKY/WX TEMP WIND PRES VSBY WAVE AIR SEA DIR/SP/G HT/PER (UTC) (F) (DEG/KT/KT) (MB) (MI) (FT/S) NY HARB ENTRANCE 1900 35 39 280/ 10/ 12 1021.0 2/11 4S FIRE IS NOT AVBL 20S FIRE ISLAND 1800 41 1022.4 2/ 4 23SW MTP 1900 N/A 3/ 6 HUDSON CANYON NOT AVBL EXECUTION ROCKS 1900 37 33 280/ 10/ 14 N/A WESTERN LI SOUND 1900 35 260/ 6/ 8 N/A 0 CENTRAL LI SOUND 1800 30 34 270/ 8/ 10 N/A 2/ 4 EASTERN LI SOUND NOT AVBL ROBBINS REEF 1900 34 270/ 10/ 13 1019.7 $$ >>>>>>>>>>>>>>>>>>>>>>>>>>>> KEY <<<<<<<<<<<<<<<<<<<<<<<<<<< > < > SKY/WX - SKY CONDITION/PRESENT WEATHER < > TMP - TEMPERATURE IN FAHRENHEIT < > DP - DEWPOINT IN FAHRENHEIT < > RH - RELATIVE HUMIDITY IN PERCENT < > WIND - DIRECTION AND SPEED IN MPH < > PRES - MEAN SEA LEVEL PRESSURE IN INCHES OF HG < > WCI - WIND CHILL INDEX < > VSB - VISIBILITY IN MILES < > HX - HEAT INDEX < > TC - TEMPERATURE IN CELSIUS < > VRB - VARIABLE WIND DIRECTION < > < >>>>>>>>>>>>>>>>>>>>>>>>>>>> KEY <<<<<<<<<<<<<<<<<<<<<<<<<<<

USA.gov is the U.S. government's official web portal to all federal, state and local government web resources and services.